PILOTS ONLINE: 394    ATC ONLINE: 43

PANT

Annette Island Airport

Location

IATA ANN
City Annette
Country  United States
Latitude 55° 2' 32" N
Longitude 131° 34' 19" W
Elevation 119 ft
Type Medium Airport

Map

Weather

METAR
2014/10/24 11:53
PANT 241153Z 12010KT 10SM BKN033 BKN041 OVC048 09/04 A2980 RMK AO2 RAE04 SLP093 P0000 60000 70007 T00890044 10094 20089 51005
TAF
No TAF available

Runways

02/20 5709 ft / 150 ft
12/30 7493 ft / 150 ft

Outbound flights

Callsign Flying to Pilot ATD/STD ETA Aircraft

Inbound flights

Callsign Flying from Pilot ATD ETA Aircraft